Location: Olmeneta
(45.2333°N, 10.0167°E)
Time: 17:15:16
(UTC+00:00)

Resurs 01 Rocket - Pass Details

Date: 03 March 2021
Orbit: 635 x 643 km, 98.0° (Epoch: 11 April)

Event Time Altitude Azimuth Distance (km) Brightness Sun altitude
Exits shadow 19:12:41 24° 28° (NNE) 1,338 3.1 -22.3°
Drops below altitude 10° 19:14:53 10° 6° (N) 2,033 4.3 -22.6°
Sets 19:17:16 0° 356° (N) 2,947 5.3 -23.0°
